EDT,Max TemperatureF,Mean TemperatureF,Min TemperatureF,Max Dew PointF,MeanDew PointF,Min DewpointF,Max Humidity, Mean Humidity, Min Humidity, Max Sea Level PressureIn, Mean Sea Level PressureIn, Min Sea Level PressureIn, Max VisibilityMiles, Mean VisibilityMiles, Min VisibilityMiles, Max Wind SpeedMPH, Mean Wind SpeedMPH, Max Gust SpeedMPH,PrecipitationIn, CloudCover, Events, WindDirDegrees
2013-6-1,64,60,55,55,53,50,100,84,59,,,,20,9,0,53,42,52,0.02,6,Fog,273
2013-6-2,62,55,47,57,53,46,100,93,72,,,,10,1,0,53,41,64,0.65,6,Fog-Rain-Thunderstorm,263
2013-6-3,48,42,33,46,43,34,100,98,82,,,,1,0,0,51,36,51,0.03,7,Fog,280
2013-6-4,33,30,26,34,30,27,100,100,100,,,,0,0,0,69,54,78,0.05,,Fog,310
2013-6-5,41,34,28,30,24,7,100,69,30,,,,0,0,0,50,39,61,0.00,4,Fog,317
2013-6-6,46,40,33,39,30,1,100,72,22,,,,0,0,0,36,19,45,0.04,7,Fog-Rain,204
2013-6-7,42,36,30,43,36,25,100,96,70,,,,4,0,0,43,29,46,1.72,8,Fog-Rain,158
2013-6-8,50,44,39,50,44,39,100,100,100,,,,0,0,0,41,29,47,0.44,6,Fog-Rain,319
2013-6-9,42,40,37,43,41,37,100,100,100,,,,0,0,0,52,37,58,0.16,,Fog-Rain,294
2013-6-10,51,45,39,41,27,18,100,52,32,,,,0,0,0,41,25,46,0.00,7,Fog-Rain,79
2013-6-11,44,40,37,45,38,37,100,99,87,,,,0,0,0,50,32,52,1.38,8,Fog-Rain,106
2013-6-12,37,36,35,37,37,36,100,100,93,,,,0,0,0,48,30,58,1.52,8,Fog-Rain,1
2013-6-13,46,40,35,43,35,27,100,86,65,,,,10,1,0,28,17,20,0.00,5,Fog,61
2013-6-14,46,40,35,43,36,34,100,83,62,,,,0,0,0,43,27,52,0.00,6,Fog-Rain,17
2013-6-15,44,40,35,34,31,25,81,72,57,,,,,,,45,39,52,0.00,2,,310
2013-6-16,50,44,39,45,39,30,100,86,62,,,,9,1,0,59,31,63,0.65,5,Fog-Rain,264
2013-6-17,44,42,39,45,43,39,100,100,100,,,,0,0,0,60,48,70,0.24,,Fog-Rain,285
2013-6-18,42,38,33,39,34,25,100,88,56,,,,0,0,0,50,33,54,0.05,6,Fog-Rain,307
2013-6-19,44,38,33,36,32,28,100,82,61,,,,2,0,0,28,20,30,0.00,3,Fog,322
2013-6-20,50,44,37,37,28,9,76,56,30,,,,,,,31,13,25,0.00,3,,249
2013-6-21,51,46,41,43,39,34,93,76,66,,,,,,,34,29,36,0.00,5,,297
2013-6-22,53,50,46,52,46,41,100,90,67,,,,10,1,0,33,23,38,0.48,8,Fog-Rain,267
2013-6-23,57,54,50,57,53,50,100,99,88,,,,4,0,0,51,35,54,1.34,8,Fog-Rain-Thunderstorm,269
2013-6-24,57,54,51,57,54,50,100,99,88,,,,0,0,0,70,52,75,0.08,7,Fog-Rain,287
2013-6-25,59,55,51,57,53,43,100,95,67,,,,10,1,0,45,33,51,1.74,7,Fog-Rain-Thunderstorm,300
2013-6-26,55,52,50,55,51,46,100,95,72,,,,10,1,0,25,13,,0.05,7,Fog-Rain,298
2013-6-27,60,55,50,54,50,30,100,87,38,,,,20,4,0,39,19,,0.02,6,Fog,256
2013-6-28,53,48,44,54,50,45,100,100,100,,,,0,0,0,43,32,61,1.18,6,Fog-Rain,175
2013-6-29,51,50,50,52,51,50,100,100,100,,,,0,0,0,45,30,53,0.54,,Fog-Rain-Thunderstorm,235
2013-6-30,57,52,48,57,52,48,100,99,88,,,,0,0,0,45,32,36,0.02,6,Fog-Rain,262